Melrose Gunnery Range, NM

2:20 AM MDT on March 26, 2017 (GMT -0600)
Melrose Gunnery Range

Weather History for K4MR - April, 2014

Change the Weather History Date:

Thursday, April 10, 2014

  Actual Average (KCVS) Record (KCVS)
Temperature  
Mean Temperature 66 °F -  
Max Temperature 82 °F 65 °F 83 °F (2012)
Min Temperature 50 °F 38 °F 21 °F (2013)
Cooling Degree Days 1    
Growing Degree Days 16 (Base 50)    
Moisture  
Dew Point 7 °F    
Average Humidity 10    
Maximum Humidity 20    
Minimum Humidity 5    
Precipitation  
Precipitation 0.00 in - - ()
Sea Level Pressure  
Sea Level Pressure 29.86 in    
Wind  
Wind Speed 13 mph (WSW)    
Max Wind Speed 17 mph    
Max Gust Speed 26 mph    
Visibility 12 miles    
Events      
Averages and records for this station are not official NWS values.
T = Trace of Precipitation, MM = Missing Value Source: NWS Daily Summary

Daily Weather History Graph

Daily Weather History Graph

Search for Another Location

Airport or City:

Trip Planner

Search our weather history database for the weather conditions in past years. The results will help you decide how hot, cold, wet, or windy it might be!

Date:

Astronomy

Apr. 10, 2014 Rise Set
Actual Time 6:30 AM MDT 7:23 PM MDT
Civil Twilight 6:04 AM MDT 7:48 PM MDT
Nautical Twilight 5:34 AM MDT 8:19 PM MDT
Astronomical Twilight 5:03 AM MDT 8:50 PM MDT
Moon 3:19 PM MDT (4/10) 3:43 AM MDT (4/10)
Length of Visible Light 13h 43m
Length of Day
12h 52m
Waxing Gibbous, 80% of the Moon is Illuminated
Apr 10
Waxing Gibbous
Apr 15
Full
Apr 22
Last Quarter
Apr 29
New
May 6
First Quarter

Hourly Weather History & Observations

Time (MDT) Temp. Dew Point Humidity Pressure Visibility Wind Dir Wind Speed Gust Speed Precip Events Conditions
12:56 AM 63.1 °F 11.5 °F 13% 29.82 in 12.0 mi SW 11.5 mph - N/A   Scattered Clouds
1:56 AM 62.2 °F 11.1 °F 13% 29.82 in 12.0 mi WSW 12.7 mph - N/A   Scattered Clouds
2:56 AM 62.1 °F 10.6 °F 13% 29.81 in 12.0 mi WSW 10.4 mph - N/A   Mostly Cloudy
3:56 AM 60.3 °F 9.3 °F 13% 29.79 in 12.0 mi SW 9.2 mph - N/A   Clear
4:56 AM 61.3 °F 9.1 °F 13% 29.79 in 12.0 mi WSW 12.7 mph - N/A   Scattered Clouds
5:56 AM 50.5 °F 10.6 °F 20% 29.84 in 12.0 mi West 12.7 mph - N/A   Partly Cloudy
6:56 AM 51.3 °F 10.6 °F 20% 29.86 in 7.0 mi West 12.7 mph - N/A   Clear
7:06 AM 51.8 °F 10.4 °F 19% 30.00 in 3.0 mi West 12.7 mph - N/A   Haze
7:56 AM 57.9 °F 10.2 °F 15% 29.90 in 12.0 mi West 17.3 mph - N/A   Clear
8:56 AM 61.2 °F 10.9 °F 14% 29.89 in 12.0 mi West 15.0 mph 23.0 mph N/A   Clear
9:56 AM 67.1 °F 12.7 °F 12% 29.90 in 12.0 mi West 17.3 mph 23.0 mph N/A   Clear
1:56 PM 78.8 °F 0.5 °F 5% 29.85 in 12.0 mi WSW 15.0 mph 21.9 mph N/A   Clear
2:07 PM 78.8 °F 3.2 °F 5% 30.01 in 12.0 mi West 12.7 mph 20.7 mph N/A   Clear
2:55 PM 80.6 °F 3.2 °F 5% 29.98 in 12.0 mi WSW 13.8 mph 21.9 mph N/A   Clear
2:56 PM 81.0 °F 4.1 °F 5% 29.81 in 12.0 mi WSW 13.8 mph 21.9 mph N/A   Clear
3:40 PM 82.4 °F 3.2 °F 5% 29.97 in 12.0 mi West 17.3 mph 26.5 mph N/A   Clear
3:56 PM 82.2 °F 2.8 °F 5% 29.79 in 12.0 mi WSW 12.7 mph 23.0 mph N/A   Clear
4:40 PM 82.4 °F 3.2 °F 5% 29.94 in 12.0 mi West 13.8 mph 25.3 mph N/A   Clear
4:56 PM 82.4 °F 4.6 °F 5% 29.77 in 12.0 mi West 15.0 mph 23.0 mph N/A   Clear
5:56 PM 82.0 °F 3.4 °F 5% 29.78 in 12.0 mi West 13.8 mph 24.2 mph N/A   Clear
6:56 PM 79.0 °F 5.7 °F 6% 29.81 in 12.0 mi WSW 13.8 mph 23.0 mph N/A   Clear
7:56 PM 72.3 °F 5.2 °F 7% 29.81 in 12.0 mi SW 10.4 mph - N/A   Clear
8:56 PM 72.0 °F 5.0 °F 7% 29.83 in 12.0 mi SW 12.7 mph - N/A   Clear
9:56 PM 65.1 °F 4.8 °F 9% 29.84 in 12.0 mi SW 11.5 mph - N/A   Clear
10:56 PM 65.3 °F 4.6 °F 9% 29.81 in 12.0 mi SW 12.7 mph - N/A   Scattered Clouds
11:56 PM 62.2 °F 3.4 °F 10% 29.83 in 12.0 mi SW 13.8 mph - N/A   Clear